Theta_e
298 298 298 298 298 299 301 302 303 303 304 304 303 304 307 310 313 318 320 320 320 323 327 323 322 331 329 321 320 320 320 321 320 318 316 315 315 315 317 317 317 320 320 323 330 330 329 335 336 332 330 328 323 320 323 320 319 325 327 325 326 331 336 330 327 337 341 333 328 325 325 331 334 330 331 332 329 339 345 335 333 333 325 325 325 324 339
300 300 300 300 299 298 299 301 302 302 303 304 303 304 308 310 313 318 320 320 320 324 326 325 329 332 328 325 325 323 321 320 320 320 317 315 315 316 319 318 316 319 323 326 331 330 326 328 331 330 328 330 325 321 324 324 323 324 324 327 327 324 326 328 328 333 335 334 337 337 334 336 334 331 331 331 334 339 334 333 340 335 328 331 327 328 343
301 301 301 302 301 300 299 299 300 302 303 303 303 304 308 313 317 317 318 320 321 322 323 324 329 330 328 331 332 327 324 322 320 321 319 317 316 317 319 318 316 320 324 326 329 330 326 325 327 327 328 331 327 323 325 328 330 329 323 324 325 324 333 343 338 329 326 329 337 341 339 332 328 330 330 331 338 337 324 327 336 328 322 328 330 334 343
301 301 301 301 301 301 300 298 299 301 302 302 303 305 308 313 319 319 318 320 319 318 318 318 324 328 326 329 329 325 326 325 321 320 318 317 316 316 317 316 316 319 319 319 323 326 326 325 326 327 331 336 329 322 325 328 333 338 327 320 331 335 337 349 350 337 334 339 341 342 338 329 326 329 329 332 336 334 330 331 333 332 327 328 338 340 333
300 300 300 300 300 301 301 300 298 300 302 302 302 305 308 312 317 316 317 319 319 319 317 316 320 322 322 326 325 322 325 325 324 322 317 317 318 317 317 317 318 319 319 321 324 325 326 326 327 328 332 338 334 324 324 325 329 335 325 317 338 348 332 334 345 338 338 346 342 334 330 328 332 332 328 334 336 334 333 328 327 333 328 329 346 344 328
298 298 298 298 298 299 301 301 299 298 301 302 302 305 308 310 312 312 313 317 319 320 319 316 318 318 319 325 321 320 325 326 324 324 321 322 323 322 326 328 326 326 324 324 325 327 328 328 328 331 331 336 340 330 325 325 323 329 328 322 340 357 332 323 331 332 333 338 336 333 333 331 338 341 335 336 336 331 329 327 329 333 329 332 346 342 331
296 295 295 296 296 298 300 301 300 298 301 302 302 305 307 308 310 310 311 315 316 316 315 314 317 317 319 324 319 317 323 322 318 319 324 329 326 323 331 334 328 329 326 325 330 332 328 327 329 333 333 333 335 331 329 327 321 328 339 330 330 339 330 325 329 326 327 332 332 333 334 330 332 338 339 342 343 337 333 335 334 331 329 339 344 342 340
294 294 294 294 295 297 299 300 300 298 300 302 302 305 306 307 309 308 310 314 314 313 312 312 317 318 316 320 317 313 318 318 314 314 320 326 324 319 325 326 322 325 327 329 336 332 324 326 330 332 333 331 331 331 331 328 324 333 341 331 326 328 324 328 336 328 325 333 335 333 335 332 329 332 336 339 339 333 331 337 335 327 328 339 339 338 343
293 293 294 294 294 296 298 299 299 298 300 302 302 303 304 306 308 307 311 316 315 313 311 311 317 319 314 316 316 314 316 313 311 316 318 318 318 317 318 319 320 326 328 328 330 323 316 321 324 324 327 328 328 330 329 326 329 340 338 329 335 340 327 327 338 331 323 329 336 339 341 336 331 334 338 337 335 335 335 337 336 332 334 339 331 331 344
293 293 293 293 294 295 297 298 298 298 299 301 302 302 302 304 308 308 311 315 313 312 312 312 317 317 311 311 312 311 313 310 310 321 323 315 315 316 314 315 321 329 329 324 321 316 314 318 318 317 320 319 321 325 325 324 327 337 342 335 338 345 336 330 335 331 324 327 334 340 338 330 331 342 346 343 341 340 335 333 335 337 339 340 333 334 345
293 293 293 293 293 294 296 298 298 298 299 300 302 302 301 303 307 308 310 313 310 309 312 314 315 313 308 308 309 309 310 309 310 318 323 318 316 315 312 312 321 329 325 317 316 316 317 320 318 318 317 317 320 323 323 327 326 329 343 345 337 343 348 338 332 328 327 332 335 331 324 325 335 347 348 342 338 338 336 337 340 336 335 339 334 333 341
293 293 293 293 293 293 295 297 298 299 300 301 302 302 302 302 306 308 309 312 310 309 313 313 309 308 307 307 308 308 309 309 308 310 315 316 315 314 312 311 317 324 320 316 318 320 321 323 324 324 321 319 321 321 322 332 329 321 329 339 340 347 349 339 332 328 329 337 337 325 324 335 344 343 335 330 329 333 335 337 340 335 333 337 334 333 338
294 293 293 293 293 293 294 296 298 299 302 304 303 303 302 302 305 308 309 313 313 310 312 312 306 305 307 306 307 308 308 308 308 308 310 313 313 313 313 312 312 315 317 319 320 320 326 334 333 330 329 329 330 327 326 331 330 323 322 328 340 351 348 336 330 326 326 331 332 328 331 340 344 335 327 325 325 327 329 329 336 341 337 335 337 337 335
293 293 293 293 293 293 293 295 297 299 302 304 303 304 304 302 304 306 307 312 314 309 308 311 309 306 307 306 306 308 308 308 309 310 310 311 312 311 312 312 312 314 318 320 318 319 328 341 340 331 331 338 340 336 333 331 328 329 328 324 329 340 342 337 330 327 330 330 331 334 331 331 339 334 326 324 325 327 331 329 336 347 338 328 331 337 335
293 293 294 294 293 293 293 294 296 298 301 304 304 304 305 303 303 304 304 308 311 310 308 308 308 307 306 306 306 308 311 310 310 311 310 309 310 311 311 312 314 317 320 320 321 327 331 332 334 330 329 335 336 332 336 334 325 326 330 328 326 327 331 336 332 329 332 331 329 332 326 329 348 346 326 322 324 326 327 326 336 350 333 321 327 335 336
293 293 293 294 293 293 293 293 294 296 299 303 306 305 304 304 304 303 303 304 307 310 309 305 304 306 306 306 306 307 310 311 310 313 315 312 309 310 312 313 316 318 320 319 321 331 333 327 329 330 327 331 333 329 331 333 327 324 328 332 332 328 329 338 336 330 330 329 327 330 328 333 347 341 326 323 323 322 321 322 337 344 324 315 324 329 327
293 293 294 294 294 294 293 293 293 295 297 301 304 305 303 303 303 302 302 303 302 304 306 304 303 306 307 307 308 307 308 309 309 311 314 312 308 308 310 313 316 317 319 322 324 331 334 329 329 330 327 327 332 331 329 331 330 330 332 337 337 331 328 332 333 330 331 330 329 331 332 331 330 328 327 327 323 321 323 328 337 334 321 318 323 322 321
293 293 293 294 294 294 294 293 293 293 295 297 300 303 303 303 303 302 302 302 301 301 303 302 303 306 306 305 307 308 307 308 308 309 311 310 308 308 308 310 314 316 317 322 327 332 334 331 326 327 328 324 325 329 329 328 329 330 332 336 336 332 327 326 328 331 331 329 327 329 331 329 327 327 328 325 321 323 329 335 334 327 324 326 324 320 322
293 293 293 293 294 294 294 294 293 293 294 295 298 302 303 302 302 302 302 302 301 301 301 300 302 306 304 302 305 308 308 308 309 309 312 312 308 307 309 310 312 314 314 318 324 327 330 331 325 323 329 329 326 327 327 327 328 329 330 332 332 330 326 322 324 329 330 329 328 328 327 325 323 326 326 321 321 328 333 332 329 326 326 329 327 326 328
292 293 293 293 294 294 294 294 293 293 293 293 296 300 303 302 301 301 302 301 301 300 301 302 304 304 302 302 305 307 307 308 308 308 311 312 308 309 315 317 314 312 313 319 324 323 323 329 325 322 329 332 327 326 327 328 328 327 329 332 331 328 327 327 326 326 326 326 326 326 327 326 324 327 328 326 327 331 330 328 328 328 328 328 328 328 328
292 292 293 293 293 294 293 294 293 293 293 293 294 297 300 300 300 300 300 299 299 300 301 303 304 302 301 303 305 306 306 307 307 308 308 309 308 309 316 316 311 310 313 317 320 318 316 321 323 322 325 328 325 325 328 332 330 325 325 330 330 326 328 333 332 327 326 328 327 325 326 326 325 327 328 328 328 328 327 327 328 329 329 328 328 328 327
291 292 292 292 293 293 293 293 293 293 293 293 294 296 297 298 299 300 299 298 299 299 299 300 300 299 302 305 305 305 306 306 307 307 308 308 306 307 310 309 307 308 310 312 315 316 313 315 318 320 322 325 326 324 324 329 332 327 324 327 328 327 328 330 330 329 328 329 329 327 324 324 325 327 327 327 327 326 326 327 328 328 328 328 328 327 327
291 291 292 292 293 293 293 293 293 293 292 293 294 296 297 298 300 301 301 300 300 299 298 298 299 301 304 306 305 304 305 305 306 305 306 306 305 305 308 308 306 306 307 308 311 313 312 312 313 316 319 322 324 323 323 327 329 326 323 324 324 324 324 324 327 328 325 323 325 325 324 324 325 326 326 325 325 324 324 326 327 327 327 328 327 327 327
291 291 292 292 292 293 293 293 292 292 292 293 295 297 299 300 302 302 302 302 302 301 300 299 300 303 306 306 305 305 304 304 305 304 304 305 305 305 306 306 305 305 306 307 308 308 310 312 311 313 317 319 319 322 325 326 324 322 323 326 325 322 321 325 330 331 328 328 328 324 323 324 325 326 326 326 325 324 323 324 327 329 328 327 327 326 326
291 291 291 292 292 293 293 293 292 292 293 294 296 299 301 302 303 303 303 303 303 303 304 304 302 304 306 305 305 305 304 304 305 305 304 304 305 305 306 305 305 305 304 305 306 306 308 310 312 314 316 315 316 319 320 320 319 318 321 326 326 321 321 326 330 331 330 329 326 322 322 324 325 326 326 324 322 324 324 322 325 328 328 327 327 326 326
291 291 292 292 292 293 292 292 293 292 293 294 296 299 302 303 303 304 304 304 303 303 305 307 304 302 303 304 304 305 304 304 304 305 305 305 305 305 305 305 305 305 304 304 305 306 307 309 311 315 316 314 313 315 316 316 316 316 319 322 320 318 320 323 325 330 332 328 322 320 324 326 324 324 325 322 319 322 324 322 322 325 326 326 326 328 328
291 291 292 292 293 293 293 293 293 293 293 295 297 300 302 303 303 303 303 303 303 304 305 306 303 300 301 303 302 303 303 303 304 305 305 305 305 305 306 306 305 305 305 304 304 306 308 308 310 312 313 312 311 312 312 313 314 316 320 321 317 317 322 323 325 329 331 327 321 319 323 326 323 319 320 318 316 319 322 322 321 322 323 324 325 325 326
291 292 292 293 293 293 293 293 293 293 294 296 300 302 303 303 302 302 301 301 302 303 303 302 301 300 301 301 301 301 302 302 304 305 305 305 305 305 305 305 305 305 305 305 305 306 307 308 309 309 308 309 311 312 312 312 313 316 320 318 315 315 319 320 323 325 324 322 318 315 316 319 316 313 313 315 314 314 317 319 320 321 322 323 323 323 323
291 292 293 293 293 293 293 293 293 293 293 297 301 303 303 302 301 301 301 301 300 300 300 300 301 301 300 300 301 302 302 302 303 304 305 305 306 305 305 304 305 305 305 305 305 306 305 306 307 307 307 308 310 312 313 313 314 317 316 312 311 312 312 313 315 316 315 314 313 310 311 312 311 309 311 313 313 313 314 314 316 317 319 321 323 323 323
292 292 293 292 292 293 293 293 293 293 293 296 300 301 300 301 301 301 300 300 300 300 300 302 303 302 299 300 303 304 303 303 303 303 304 305 305 305 305 305 305 305 305 305 305 305 305 306 305 306 308 308 308 312 313 312 314 318 315 309 309 309 308 308 310 310 309 309 308 308 309 310 309 310 310 312 313 313 313 313 314 314 316 318 320 321 322
292 292 292 292 292 293 293 294 294 294 294 296 300 301 300 300 300 300 300 300 299 300 301 301 302 300 299 300 302 303 304 304 303 303 303 304 304 305 305 304 305 306 305 305 306 305 305 306 305 306 307 307 309 313 313 312 314 317 312 307 307 308 307 307 308 308 308 309 308 309 310 310 311 311 311 312 312 312 312 313 313 313 314 316 318 320 321
293 292 292 293 293 294 295 295 296 297 297 298 300 301 300 300 300 300 300 300 299 299 301 302 302 301 300 301 301 302 303 304 304 304 305 304 304 305 305 304 305 305 305 305 306 305 306 306 305 306 306 306 309 314 314 312 312 311 307 306 308 308 308 309 309 308 309 309 308 309 310 311 311 311 311 312 312 312 312 312 312 313 314 314 316 317 318
293 293 293 293 294 295 297 297 297 298 299 299 300 300 300 300 300 300 300 300 298 299 301 302 302 302 302 301 301 301 302 303 303 303 304 304 304 304 305 305 305 305 306 306 306 305 306 305 305 306 306 306 308 312 313 310 308 307 306 308 309 310 310 311 310 309 309 309 308 309 310 310 310 311 311 312 312 312 312 312 312 313 313 314 314 315 315
293 293 293 294 295 296 298 298 298 299 299 299 299 299 299 299 299 299 299 298 298 299 301 301 302 302 302 302 302 302 301 301 302 302 302 304 304 304 305 305 305 306 306 306 305 305 306 306 306 307 307 306 307 309 309 307 307 307 307 309 310 310 311 312 311 310 309 309 309 309 309 310 310 310 311 312 313 313 313 312 312 313 313 313 314 314 314
293 293 293 294 296 297 298 298 299 300 299 299 299 298 297 298 298 298 299 298 297 299 300 300 302 303 303 304 306 305 301 300 302 302 302 303 304 304 304 305 305 306 306 306 305 305 305 306 307 307 307 306 308 309 307 306 306 307 308 309 310 311 311 312 312 312 311 310 310 310 309 310 310 310 311 312 313 313 313 313 313 313 313 313 314 314 314
293 293 293 294 295 296 297 298 299 298 298 298 297 297 298 299 299 300 300 299 298 299 299 300 302 302 302 302 303 302 301 302 302 302 302 303 304 304 304 305 306 306 305 305 305 306 306 306 307 309 309 308 307 307 306 305 306 307 307 308 309 310 311 311 311 312 312 312 313 312 312 311 311 311 311 312 313 314 314 313 313 314 314 314 314 314 314
293 293 293 294 294 295 296 297 296 295 295 295 296 298 300 300 300 301 301 300 301 300 300 301 302 301 299 300 301 302 302 303 303 302 303 303 303 303 303 305 305 305 305 306 307 307 307 307 308 310 309 307 306 305 305 306 306 307 307 308 309 310 310 311 311 312 312 312 313 313 313 313 313 312 312 312 313 314 315 315 315 315 314 314 314 314 314
293 293 293 293 293 294 295 295 294 293 294 296 297 299 300 300 300 301 301 301 302 302 302 302 303 301 300 301 303 303 303 302 302 303 303 303 303 304 303 303 303 304 306 308 307 306 307 309 310 310 307 304 304 305 305 305 306 306 306 307 308 309 309 310 310 311 311 312 312 312 312 313 313 314 314 314 314 315 315 315 315 315 315 315 315 315 314
293 293 294 294 293 293 293 293 293 294 296 297 297 298 299 299 299 300 300 300 301 303 303 303 303 302 302 302 302 303 302 302 303 304 304 303 304 305 304 303 303 304 306 307 305 304 307 308 309 309 306 303 303 304 304 304 304 304 305 306 306 307 307 308 309 310 311 311 311 311 312 312 313 313 314 314 314 314 315 315 315 315 314 315 315 315 315
293 293 294 294 294 293 293 293 295 296 297 297 298 298 299 299 299 299 300 301 301 301 302 302 301 301 302 302 302 302 302 303 304 304 304 304 304 303 302 303 303 303 306 306 304 303 305 306 306 308 307 304 303 304 304 303 303 303 303 304 304 305 306 306 307 309 309 310 310 311 311 311 312 312 313 314 314 314 314 314 314 314 314 315 315 316 316
293 294 294 294 294 294 294 295 296 297 297 297 298 298 298 298 298 298 299 301 301 300 299 300 300 300 300 301 302 302 302 303 303 302 302 304 303 302 303 303 302 302 306 306 304 304 306 306 306 307 306 304 304 304 304 304 303 302 302 303 303 303 304 305 305 307 308 308 309 310 310 311 311 311 312 312 312 312 313 313 314 314 315 316 316 316 316
293 293 294 294 294 294 295 295 296 297 297 298 298 298 297 297 297 298 299 298 298 297 298 298 299 299 300 300 300 301 301 302 303 302 303 303 303 303 304 305 303 303 306 305 304 305 307 305 305 305 305 304 304 304 304 304 304 303 303 303 303 302 302 302 303 304 306 306 307 308 308 309 310 310 311 311 311 311 311 312 312 313 315 316 316 315 316
293 293 294 294 294 294 295 295 295 296 298 299 299 299 298 297 297 297 298 297 296 295 296 297 298 299 300 300 300 300 301 302 302 302 303 303 303 304 305 305 304 304 304 304 305 305 305 305 305 306 305 304 304 304 305 305 305 305 304 305 304 303 302 301 302 302 303 305 306 307 307 308 308 309 309 310 310 310 311 311 311 311 312 314 314 315 315
293 293 293 294 294 293 294 295 295 295 297 298 298 298 298 298 297 296 297 297 295 295 295 295 297 298 300 300 300 300 301 301 301 301 301 302 303 305 306 306 304 302 302 305 307 304 303 304 305 305 303 303 304 305 305 305 305 305 305 304 304 304 303 302 301 301 302 303 304 305 307 308 308 308 308 308 309 309 310 310 310 310 309 310 312 314 315
293 293 293 294 294 293 293 295 296 295 296 297 297 297 297 296 296 296 296 295 294 294 295 296 296 297 299 299 300 300 301 301 302 301 300 300 303 304 304 304 304 302 302 305 306 303 302 304 305 303 302 303 304 304 305 305 304 304 304 303 302 303 304 303 302 302 302 302 304 304 306 307 307 308 308 308 308 308 308 309 309 310 309 309 312 313 314
293 294 293 293 294 294 293 294 296 295 294 294 295 295 295 294 294 295 294 294 294 294 295 295 296 297 298 299 300 301 301 301 301 300 300 301 303 304 302 301 302 304 304 305 305 305 305 305 304 301 301 302 302 303 304 304 303 302 302 302 302 303 304 304 303 302 302 303 304 304 305 306 307 307 307 307 307 308 308 308 309 309 309 310 311 313 313
293 293 293 295 296 295 293 293 294 294 293 293 293 294 294 294 294 294 294 294 294 294 295 295 296 297 298 298 299 300 301 300 301 301 300 301 302 304 303 302 303 304 305 304 305 306 306 303 301 301 301 301 301 303 304 303 302 301 301 301 302 303 304 304 303 302 302 303 304 304 305 305 306 306 307 307 307 307 308 308 309 309 309 309 310 311 312
293 293 294 296 296 294 293 292 293 294 294 293 293 293 294 294 293 293 294 294 294 295 295 295 296 297 298 299 299 299 299 300 300 301 301 300 301 303 304 304 305 305 304 304 305 305 303 301 300 301 302 301 302 302 302 301 301 301 301 300 301 302 303 303 303 302 302 302 303 304 304 305 305 306 306 307 307 307 307 308 308 309 309 309 309 310 311
292 293 294 295 294 293 292 293 294 294 293 293 293 293 293 293 293 293 294 294 295 295 295 295 296 297 299 299 299 299 299 299 300 301 301 302 303 304 305 305 305 305 304 303 303 302 301 299 300 301 301 301 301 301 301 300 300 300 300 300 300 300 301 301 301 301 301 302 303 304 304 305 305 306 306 306 306 307 307 307 308 308 308 309 309 309 310
292 292 293 294 294 293 293 293 294 294 293 293 293 293 293 293 293 293 294 294 294 295 296 297 297 298 297 298 300 301 301 299 299 300 301 303 304 304 303 304 305 305 303 302 301 300 298 298 299 300 301 301 300 300 300 300 300 300 300 299 300 300 300 299 299 300 300 301 302 303 304 305 305 305 305 306 306 306 306 307 307 308 308 308 308 309 309
292 292 292 293 293 293 293 293 294 293 293 293 293 293 293 293 293 293 293 294 294 295 295 296 297 298 299 300 301 301 299 298 299 300 300 301 302 303 304 305 305 304 302 300 299 298 298 298 299 300 300 300 300 300 300 300 300 300 299 299 299 300 300 299 299 299 299 300 301 303 304 304 304 305 305 305 305 306 306 307 307 307 307 308 308 308 308
292 292 292 293 293 293 293 293 293 293 293 293 293 293 293 293 293 293 293 293 294 294 294 295 296 298 299 299 298 298 298 299 299 299 299 299 299 301 303 304 302 300 299 299 298 298 298 298 298 299 299 299 299 300 300 300 300 300 300 300 300 300 300 299 299 300 300 300 301 302 303 304 304 304 304 304 305 305 306 307 307 307 307 307 307 307 308
Wind_Speed
18 20 21 22 23 22 21 23 24 26 28 29 33 29 22 16 7 6 9 6 16 5 2 1 2 1 1 0 2 2 1 1 2 3 2 3 3 2 2 4 4 4 4 3 3 3 3 4 3 3 3 4 7 5 5 2 6 5 1 3 2 2 4 4 1 4 4 5 5 3 2 5 5 2 2 3 2 3 6 5 4 3 2 2 2 1 6
18 19 21 22 23 23 22 21 22 24 26 28 31 27 20 18 10 7 11 4 15 4 1 3 0 2 2 3 2 3 3 4 4 3 3 3 2 1 2 4 4 5 3 3 4 4 3 3 4 3 2 3 6 4 3 2 4 3 3 4 4 2 1 4 3 3 5 5 6 6 4 2 3 0 2 2 4 6 4 2 4 2 3 5 4 3 6
19 20 21 22 23 23 22 21 20 22 23 25 27 24 19 14 7 6 11 6 10 3 3 3 2 1 2 2 2 3 2 5 8 8 6 7 5 3 3 4 4 4 2 2 3 4 4 2 3 1 2 4 5 3 6 4 3 3 4 7 8 5 2 4 6 4 2 2 2 3 2 1 1 1 1 2 4 6 3 2 4 1 2 4 4 4 6
20 22 23 23 24 24 22 21 19 19 21 23 24 21 14 8 3 6 9 9 10 8 7 5 2 2 2 1 1 2 1 5 9 7 7 9 8 6 5 3 2 2 2 2 4 4 5 3 1 1 2 4 4 6 9 6 5 1 5 10 8 4 2 3 7 7 7 7 6 5 4 3 2 3 3 2 3 5 5 4 1 3 3 2 5 6 4
22 23 24 24 24 23 22 21 19 18 18 20 21 18 11 4 2 3 5 6 7 6 8 10 4 0 1 1 1 3 1 4 7 3 3 4 3 4 5 2 2 4 3 3 4 5 4 3 2 3 4 4 4 9 9 4 4 1 2 5 4 4 3 1 5 6 7 7 4 1 2 3 5 6 5 3 3 4 6 3 3 4 5 3 8 5 5
23 23 23 23 22 21 21 19 18 17 17 18 19 15 9 4 1 2 3 3 2 2 7 10 6 3 2 1 1 3 3 4 4 3 6 6 4 2 2 1 2 3 3 4 3 3 2 2 3 3 2 3 5 6 5 2 5 2 2 3 4 6 2 1 3 1 2 2 2 1 1 1 3 5 6 5 4 4 4 4 5 7 5 6 7 6 7
21 21 21 21 20 19 19 18 17 16 15 17 17 12 8 6 2 4 5 2 2 4 9 10 5 4 4 2 3 4 4 4 3 3 5 6 5 5 1 3 6 7 4 5 3 1 3 3 3 2 1 1 2 3 3 2 5 6 4 4 2 5 2 1 3 3 4 4 4 1 2 0 1 1 3 4 6 6 4 3 4 5 3 4 5 7 8
19 19 19 18 18 17 17 16 16 15 14 14 14 13 10 7 4 6 7 4 5 8 8 5 3 4 5 3 3 4 3 4 5 3 1 4 6 5 3 7 9 7 2 4 5 2 2 3 4 3 1 1 1 1 2 2 4 6 4 3 3 4 2 1 4 4 4 6 5 3 2 2 1 3 4 0 4 4 2 2 2 2 1 1 5 4 7
17 18 17 17 17 16 16 16 15 15 13 12 13 14 12 8 6 6 6 3 5 8 6 3 3 3 4 3 3 4 2 4 6 5 2 1 2 4 5 8 8 5 3 6 3 2 4 8 10 8 5 4 3 3 2 1 4 5 3 2 4 4 2 0 5 5 3 5 5 6 5 6 4 6 6 2 4 3 3 3 5 5 4 3 4 2 6
16 17 16 16 16 15 15 15 14 14 12 10 12 13 13 11 8 6 3 2 5 6 4 3 3 2 2 3 3 3 4 6 6 3 2 1 3 8 8 6 6 3 4 7 8 15 16 17 18 16 15 15 14 12 10 6 3 1 2 2 3 3 4 2 3 3 4 5 4 4 4 6 5 6 6 7 6 4 3 2 5 7 7 7 5 6 6
15 16 15 14 14 14 14 14 14 13 11 11 12 13 14 13 10 7 3 1 5 6 3 3 3 1 3 6 5 3 5 8 6 1 1 2 7 13 12 7 4 1 3 13 21 24 21 18 16 14 15 17 18 15 11 7 5 4 2 3 2 3 4 2 2 3 3 6 3 2 2 1 5 6 5 7 7 7 6 5 7 8 6 3 4 5 4
14 15 14 14 13 13 12 12 12 13 11 11 12 11 12 13 11 8 3 1 4 6 4 3 2 2 5 7 5 4 5 8 8 5 4 6 10 15 13 8 4 3 14 28 29 20 10 6 5 5 7 9 10 5 0 2 6 6 1 4 4 3 4 2 1 3 1 3 4 3 2 6 8 6 3 5 6 8 9 6 6 7 7 6 5 6 6
14 14 14 14 13 11 11 10 10 10 10 9 10 10 10 11 10 8 4 0 2 3 2 2 4 6 7 7 6 6 7 10 11 6 4 5 8 12 11 8 7 14 25 31 25 13 3 1 3 3 4 4 5 4 4 4 6 7 5 4 5 5 3 3 2 1 2 2 4 2 5 8 7 5 2 2 1 3 5 5 7 8 10 8 8 9 8
13 13 13 13 12 11 10 8 8 8 8 8 9 9 9 9 10 9 7 2 1 3 2 2 5 8 8 8 8 7 8 12 12 7 3 5 7 9 12 14 16 21 25 23 16 7 2 2 3 1 2 4 4 2 3 4 6 7 8 6 4 6 4 2 2 0 2 3 1 3 4 8 7 4 1 1 1 2 5 2 7 8 8 9 8 8 8
12 12 12 12 12 11 9 8 7 7 7 7 7 7 8 8 9 10 8 3 1 3 3 2 3 7 7 7 8 6 5 8 8 6 8 8 7 10 15 19 19 20 20 14 6 2 2 2 3 1 1 1 2 2 2 2 2 5 7 7 6 5 2 3 3 1 1 4 1 3 3 4 6 5 3 2 3 6 5 1 5 7 6 12 12 8 8
12 12 11 12 11 10 9 8 7 6 6 6 6 7 7 7 8 9 8 5 2 1 2 3 4 6 5 4 6 5 4 3 4 5 6 7 12 17 19 18 14 14 18 12 2 3 4 2 2 1 3 3 2 1 1 1 1 3 5 7 8 9 5 2 3 1 2 5 2 2 3 5 7 6 7 10 10 5 4 2 4 7 6 5 11 10 9
12 11 11 11 11 10 9 8 7 6 5 5 6 7 8 7 8 8 7 5 3 2 2 4 6 5 3 3 4 4 4 3 2 2 2 5 10 17 23 21 12 12 17 10 1 4 5 3 3 2 3 4 1 0 2 2 1 2 2 5 7 6 5 3 1 1 1 4 3 3 4 4 4 5 9 15 11 1 4 1 5 8 15 12 7 8 7
12 11 11 10 10 10 9 8 7 6 5 6 7 8 9 8 8 8 6 5 4 2 1 4 6 4 4 3 3 3 4 4 2 1 2 4 5 13 21 19 11 12 16 9 1 3 4 2 1 3 4 3 0 3 1 2 0 2 1 3 4 4 2 2 3 3 3 4 3 2 4 3 4 9 14 14 7 3 4 3 7 12 19 15 6 6 8
12 11 11 11 10 10 9 9 8 6 5 5 6 7 9 9 8 7 7 6 5 3 4 5 3 2 5 6 4 3 4 3 2 2 1 1 8 16 15 8 6 9 11 7 3 2 2 0 1 3 3 2 1 3 3 2 2 1 1 3 3 2 1 1 3 4 3 4 3 2 4 1 6 13 14 8 2 3 4 5 8 13 13 13 14 11 10
11 11 11 11 10 10 10 9 9 7 5 4 4 5 8 9 9 8 8 9 10 8 6 2 4 2 6 9 5 3 4 3 3 3 2 1 11 17 8 2 6 8 6 5 3 1 1 1 2 0 1 2 2 2 3 1 2 1 1 1 2 4 3 2 2 3 2 2 2 0 3 3 11 14 9 5 2 3 7 7 9 10 12 16 20 20 19
10 10 11 11 11 10 10 9 9 9 7 5 4 4 6 8 10 10 10 11 11 8 3 1 3 3 6 5 2 2 4 4 4 4 3 5 10 9 2 2 5 5 2 2 1 0 2 3 3 1 0 1 1 1 2 1 1 1 1 1 2 2 2 1 2 2 2 3 1 2 5 6 11 9 2 1 3 3 4 5 7 12 15 15 17 19 21
10 10 11 11 10 10 9 10 10 10 8 7 5 3 4 6 8 10 11 11 9 8 7 7 7 6 3 1 2 3 3 3 2 1 3 6 7 5 2 4 5 3 2 3 1 0 2 2 2 3 1 1 2 1 2 2 1 2 3 2 3 1 1 2 2 1 2 3 4 4 5 8 8 5 3 5 7 8 8 6 6 10 14 14 16 19 21
10 11 10 10 10 9 9 9 10 10 9 7 5 5 6 6 7 10 10 10 9 9 9 7 6 2 3 5 3 3 3 3 3 1 1 3 4 4 3 4 6 5 4 4 2 2 2 2 1 3 2 1 1 2 2 2 1 1 3 1 1 1 1 1 1 2 1 1 3 3 10 14 10 5 6 9 10 11 13 11 11 12 13 13 15 18 21
11 10 10 10 9 9 8 8 9 9 8 7 6 8 9 10 11 13 11 11 12 9 4 2 1 2 4 6 3 1 1 1 0 3 2 3 4 3 2 4 7 6 5 6 6 3 1 2 2 1 2 2 1 1 2 2 1 1 2 2 2 3 4 3 1 1 2 0 2 6 14 15 10 8 10 13 14 14 14 14 14 13 12 12 13 16 20
11 10 10 10 9 8 7 7 8 8 7 6 6 8 10 11 13 14 14 14 13 7 3 3 2 2 2 4 4 3 4 3 3 4 4 5 6 6 4 6 7 8 8 9 8 6 3 1 1 1 1 2 3 1 1 1 1 1 2 1 3 5 6 4 0 1 1 3 5 14 14 6 7 12 14 18 20 18 14 14 14 12 11 12 12 13 17
10 10 10 10 9 8 7 7 7 8 6 5 5 7 9 12 13 14 16 17 12 5 3 3 2 1 3 5 4 4 6 6 6 6 5 6 7 8 8 8 8 9 9 8 8 6 2 1 1 1 0 2 4 2 1 1 1 1 1 2 4 5 5 3 1 3 2 1 7 16 11 3 9 19 20 20 23 20 14 13 13 11 10 10 10 9 10
9 9 10 10 10 9 7 6 6 6 5 4 5 5 8 11 12 13 17 17 11 4 2 5 8 8 6 6 5 4 6 8 8 8 7 6 6 6 6 7 8 8 8 7 6 3 2 2 2 1 2 3 4 2 0 1 1 3 1 5 6 4 3 3 3 3 2 1 5 11 6 2 11 23 23 20 21 19 15 12 12 12 12 10 9 9 7
8 8 9 9 9 8 7 6 5 5 4 2 4 5 6 8 10 11 13 14 11 5 5 12 16 12 6 2 2 3 5 8 10 10 10 8 7 5 5 6 7 7 6 6 4 1 1 2 2 2 2 3 3 2 2 2 3 2 1 4 5 4 3 3 3 1 4 5 7 10 7 6 13 21 21 17 18 20 18 15 14 14 13 12 12 11 8
8 8 8 8 8 7 7 6 5 4 3 1 2 3 4 5 7 9 11 12 12 10 10 12 12 8 5 4 6 5 4 8 11 12 12 11 9 7 6 7 7 7 5 3 2 0 1 2 3 3 3 3 1 2 3 2 2 1 4 6 7 6 6 7 4 3 8 13 16 17 15 14 19 24 22 16 16 20 20 17 16 17 15 14 15 15 13
9 9 9 9 8 7 7 7 6 4 2 1 2 2 2 3 6 9 11 12 12 12 10 6 4 5 6 6 9 11 6 3 7 11 12 12 12 10 8 9 9 7 4 2 1 2 2 3 2 2 2 2 1 0 1 1 1 3 6 10 14 15 16 16 13 11 14 18 20 21 21 20 21 22 20 16 16 19 20 19 19 19 16 13 14 15 15
9 9 10 10 9 8 8 8 7 6 4 1 1 1 3 3 6 8 10 11 12 12 9 5 6 7 6 5 10 15 12 7 4 3 5 8 9 9 9 9 8 6 4 3 2 2 2 2 1 1 1 2 2 2 2 1 1 3 9 17 21 22 22 23 22 19 19 21 22 22 21 19 18 17 18 17 17 19 19 19 20 20 17 14 12 13 14
9 9 9 9 8 8 9 8 7 6 4 3 1 2 3 4 7 9 9 11 12 11 8 5 4 4 4 4 10 16 13 9 9 7 4 2 2 3 5 6 6 4 2 2 2 1 1 1 1 1 1 0 1 2 3 3 2 6 16 24 25 24 23 22 21 18 16 18 19 17 16 17 18 17 19 19 19 19 19 19 19 19 18 16 14 11 11
8 8 8 7 6 7 8 9 7 5 4 3 3 4 4 5 8 10 10 12 11 8 6 4 1 1 5 5 9 15 15 11 11 11 8 8 8 5 2 2 2 4 3 2 2 1 1 1 1 1 1 1 2 2 3 1 4 13 22 24 23 23 23 20 15 12 11 14 14 12 14 18 20 19 19 18 17 17 17 17 18 18 18 18 17 13 11
7 7 6 6 5 6 7 8 7 4 4 3 3 5 7 9 10 10 10 10 9 5 5 5 1 1 6 5 4 13 17 14 12 12 8 7 9 7 2 1 2 3 4 2 2 1 1 2 2 1 2 1 3 3 2 4 13 21 24 23 24 26 26 24 18 14 12 14 14 14 17 20 20 18 17 16 14 14 15 16 14 15 17 19 18 15 14
6 6 5 5 5 5 6 7 6 4 4 3 4 7 9 9 9 9 8 8 6 3 3 5 2 1 4 4 3 11 18 14 11 11 8 6 8 7 2 1 2 2 2 2 2 0 1 2 2 1 0 2 3 2 1 7 16 22 23 23 25 26 25 24 24 23 18 14 14 15 16 17 18 18 17 16 15 16 17 15 12 13 15 16 15 14 13
7 7 6 5 5 5 5 5 5 5 5 5 4 5 5 5 6 7 7 8 7 4 3 4 2 1 2 1 3 10 15 13 11 12 9 6 6 6 4 2 1 1 1 1 1 0 2 3 1 2 3 3 2 1 5 10 16 19 21 22 23 23 20 18 22 26 25 22 21 21 19 16 16 17 18 17 17 17 17 14 11 10 11 12 12 11 10
9 7 6 6 6 5 5 5 6 6 6 6 3 2 3 4 5 6 6 7 8 7 5 4 1 1 0 2 5 9 11 9 10 11 9 6 6 5 4 3 0 1 1 1 1 1 2 3 2 3 2 1 1 4 9 13 15 17 20 21 22 23 22 21 23 26 27 26 26 28 27 23 21 19 17 16 16 17 16 15 13 11 11 12 13 13 13
9 8 7 6 5 4 4 6 7 6 5 4 3 2 3 5 4 4 5 6 6 6 7 4 2 3 2 2 5 9 7 6 7 7 6 6 6 3 3 3 1 1 1 2 2 1 1 1 3 4 2 2 6 10 13 15 15 17 20 21 22 24 24 24 25 26 26 25 25 26 27 26 25 24 21 18 18 18 18 18 17 17 17 17 17 17 17
10 8 7 8 7 6 6 6 6 4 3 3 3 1 2 4 3 3 5 5 4 4 6 5 5 5 3 3 5 9 7 5 5 4 4 6 5 2 2 3 2 2 2 1 1 1 1 1 2 3 1 4 8 12 15 17 17 19 20 20 21 22 22 22 23 23 22 20 20 21 22 22 22 22 22 20 19 18 18 18 19 20 21 22 22 22 21
9 8 9 9 9 7 6 5 5 4 3 3 3 2 3 4 3 2 3 4 3 3 5 6 7 8 6 3 4 6 8 6 4 2 3 4 3 2 2 2 2 3 2 1 2 2 1 0 2 3 0 4 8 12 15 16 17 18 19 19 20 20 20 20 20 20 19 18 18 19 20 19 19 21 22 21 21 20 20 20 20 20 20 20 22 23 23
11 11 11 10 8 7 6 4 4 5 3 3 3 3 2 3 3 3 3 3 1 3 7 9 8 8 9 6 4 5 7 7 5 3 2 3 3 3 2 1 2 3 1 3 4 3 2 1 2 1 1 5 9 13 14 16 17 19 20 20 21 21 20 20 19 19 19 20 19 19 19 19 19 20 20 21 22 23 23 23 22 20 19 18 19 21 22
12 11 10 8 6 6 5 4 4 5 4 3 3 2 1 1 3 3 3 2 1 4 8 10 9 9 10 10 7 6 6 7 5 3 1 2 3 3 1 1 2 2 1 4 5 4 2 1 1 1 4 8 12 13 14 16 18 19 20 22 23 23 23 22 21 20 20 20 20 20 20 20 19 19 19 20 22 23 23 22 22 21 19 17 17 19 20
10 10 8 6 6 6 5 4 5 4 2 2 2 2 2 2 2 2 2 3 5 7 10 12 13 10 9 9 10 8 6 5 5 3 1 2 3 2 2 2 1 0 3 4 4 3 0 1 2 3 7 11 12 12 14 16 17 18 19 21 22 23 24 24 23 22 21 21 20 20 20 20 20 20 19 20 22 22 21 20 20 20 20 19 17 16 16
9 9 7 4 5 6 4 3 4 4 2 1 2 1 1 2 2 1 2 4 6 9 12 15 14 10 7 10 11 8 3 3 5 3 2 2 2 2 1 1 2 2 3 3 2 1 1 2 3 5 9 11 12 13 14 16 17 19 20 20 21 22 23 24 25 25 24 23 22 21 20 20 20 20 20 20 21 22 22 22 21 21 22 22 19 15 13
9 8 6 3 4 5 3 1 3 3 1 0 1 2 2 1 2 2 2 5 8 11 16 18 15 10 9 10 9 4 2 4 5 3 1 2 2 0 1 2 1 1 2 1 1 1 0 2 3 7 12 14 15 15 15 16 18 19 20 21 21 22 22 24 27 28 27 26 24 23 22 21 21 21 21 20 21 22 23 24 23 23 23 22 19 15 12
9 8 6 3 2 4 3 1 1 2 1 1 1 1 1 2 3 4 6 9 11 14 18 19 15 10 9 8 5 3 4 4 2 2 1 2 0 2 1 0 1 2 2 1 2 1 2 3 5 11 15 16 16 15 15 16 17 18 19 21 22 21 22 24 26 28 28 26 25 25 23 22 21 21 21 21 22 23 24 24 23 23 22 22 21 18 15
7 7 6 3 1 3 3 2 0 1 1 2 1 2 2 4 7 8 8 10 12 14 18 17 11 7 6 5 3 4 4 2 0 2 1 1 1 2 2 1 0 1 1 1 3 3 3 4 10 15 16 16 15 13 14 15 17 18 20 22 22 22 22 23 25 27 28 27 26 26 26 24 22 21 22 22 22 22 24 24 24 23 22 21 20 20 18
5 4 4 2 0 1 0 1 2 3 1 1 2 4 4 6 10 10 9 10 12 15 17 15 9 5 4 3 2 3 3 1 1 2 1 1 0 1 2 2 2 2 1 2 3 3 3 10 15 17 16 14 12 11 13 15 17 19 21 22 23 23 23 24 26 27 28 28 28 28 28 27 24 22 23 24 23 22 23 24 24 23 21 19 18 19 18
5 3 2 1 1 1 2 3 5 6 4 3 4 5 7 9 11 9 8 10 12 14 14 10 5 2 3 2 1 1 2 1 0 1 1 1 0 1 1 1 2 2 2 2 3 2 9 16 17 16 15 14 13 13 15 17 19 21 23 24 25 25 25 25 27 27 28 28 28 28 28 27 26 24 24 25 25 24 23 23 23 22 20 19 18 18 18
4 3 1 1 0 2 4 4 4 4 6 8 10 11 11 13 12 9 8 11 15 14 9 4 1 2 2 2 2 1 1 1 0 1 1 1 1 1 1 1 3 3 2 2 3 9 17 21 19 16 15 16 16 17 18 20 21 24 25 25 25 25 26 27 28 28 28 28 28 28 27 27 26 26 26 26 27 27 25 23 22 21 20 20 19 18 18
3 2 1 1 2 3 4 3 3 5 8 12 15 15 13 14 14 12 11 14 16 12 6 3 1 1 1 1 1 0 2 1 1 1 1 2 1 2 1 3 5 4 4 7 12 18 22 22 20 18 17 17 18 20 21 22 24 26 27 26 25 26 28 29 29 29 29 28 27 27 27 27 27 28 28 28 28 28 26 24 21 19 18 19 19 17 15
1 1 2 3 6 7 7 8 9 11 13 16 17 16 15 16 15 13 13 14 12 8 5 4 2 1 1 0 1 1 1 1 1 1 2 2 2 2 3 5 8 10 13 17 21 24 24 22 21 19 18 19 21 22 23 24 25 27 26 26 26 27 30 31 30 29 29 28 28 27 27 27 27 28 29 29 28 27 26 24 21 18 15 15 16 15 14
Wind_Direction
338 341 341 339 338 336 337 337 334 336 340 344 347 348 348 342 315 346 7 187 179 149 36 346 26 165 206 293 208 256 286 232 307 314 276 232 224 217 221 211 211 221 218 209 200 192 209 218 205 214 240 228 221 247 338 24 150 131 148 215 169 93 89 87 334 304 305 313 347 31 80 100 98 51 55 108 119 119 138 170 168 127 141 146 105 236 269
339 342 341 339 341 340 341 341 337 338 342 343 347 346 341 334 314 348 18 183 189 171 59 181 3 316 323 18 344 273 229 209 237 250 243 243 193 166 244 215 215 232 196 160 201 200 192 228 229 207 210 244 243 253 334 61 156 174 210 189 166 168 122 97 82 2 349 347 353 351 341 42 101 65 11 74 102 101 113 123 84 95 185 149 132 226 256
337 338 337 337 339 340 343 345 339 340 342 343 346 345 341 340 317 336 20 88 158 117 57 163 154 40 19 18 327 298 268 235 239 231 231 239 210 191 261 235 210 222 180 161 223 205 185 234 276 217 214 272 275 308 349 25 140 212 197 155 149 153 146 115 120 135 159 188 270 268 257 315 108 146 66 69 108 115 133 103 73 70 204 138 149 218 263
333 332 333 332 333 335 341 345 343 342 342 343 348 349 347 358 352 323 358 48 82 71 49 44 76 112 69 50 317 347 5 296 282 258 237 243 232 224 250 246 210 232 219 228 265 246 206 201 296 290 265 269 277 323 340 26 88 141 132 128 126 108 90 125 139 159 179 188 215 221 171 135 175 182 162 151 132 116 106 91 113 189 163 173 219 204 237
328 327 328 327 328 330 334 342 346 344 343 346 350 352 355 16 48 339 340 8 35 51 34 22 16 241 110 126 9 12 11 321 318 296 254 268 255 237 243 218 204 234 213 197 242 253 219 193 228 243 249 260 292 317 319 13 63 330 121 108 105 92 73 140 145 172 197 187 197 217 129 153 186 186 178 164 136 111 106 120 203 158 119 275 261 195 184
325 324 325 325 326 326 329 339 347 346 346 350 352 357 8 20 19 23 12 337 340 14 349 345 341 351 34 144 36 24 25 1 347 313 317 340 20 11 301 342 330 271 213 178 219 247 205 217 243 229 242 289 329 329 304 340 24 25 65 47 100 113 95 190 149 182 227 151 25 4 110 142 162 176 190 173 151 153 155 190 194 148 145 240 239 178 193
325 326 327 328 328 326 328 337 346 350 351 351 357 10 21 22 3 358 7 328 259 302 317 321 339 22 23 33 28 26 26 11 338 290 322 340 7 25 334 297 328 316 251 188 184 186 182 226 256 235 233 285 347 340 284 304 20 52 61 7 62 111 97 207 130 50 8 3 345 315 146 66 72 193 222 187 168 168 161 195 200 159 170 231 185 183 227
326 329 331 333 333 329 331 338 344 354 355 351 8 29 29 21 3 337 342 323 308 324 329 340 37 29 16 32 11 1 29 19 335 294 312 329 338 10 348 303 316 313 279 143 141 154 186 237 249 217 153 72 155 229 240 253 349 29 63 357 15 93 128 248 91 66 341 332 355 40 92 136 176 330 333 98 145 148 142 157 176 170 256 248 132 171 258
329 331 333 337 339 335 335 340 346 356 359 358 21 38 31 18 2 338 334 326 333 340 338 359 66 31 9 14 345 343 12 11 336 293 235 167 351 350 321 305 304 301 19 72 95 295 285 258 256 253 263 284 262 246 247 262 329 356 47 15 7 65 117 20 69 79 292 311 2 12 31 62 34 327 307 213 151 171 207 187 175 178 173 139 117 168 255
333 334 336 338 343 342 339 342 349 358 2 5 26 38 29 18 8 345 322 307 346 352 335 353 50 61 350 342 334 316 309 330 340 307 242 146 27 352 331 309 298 296 36 34 335 312 301 281 277 277 273 278 278 267 262 260 259 309 84 58 21 75 120 145 94 111 247 289 354 12 36 44 350 288 229 192 191 208 234 247 220 194 151 137 171 215 234
336 338 341 342 346 348 344 344 350 358 5 13 24 29 23 17 5 345 326 277 338 353 3 23 42 62 334 341 331 295 312 333 348 3 266 298 340 345 343 341 337 286 352 337 322 313 304 290 287 282 269 272 276 267 255 252 245 223 147 97 60 71 95 133 130 125 239 283 326 36 30 323 255 246 188 177 198 196 193 224 230 206 176 169 223 236 224
340 343 347 348 349 351 349 347 351 359 7 14 20 23 17 11 0 347 346 233 324 355 32 48 35 346 323 332 331 312 317 327 323 301 259 277 316 334 346 6 18 317 326 329 326 322 311 292 298 289 267 273 284 286 345 306 287 281 239 113 118 91 81 103 94 98 157 314 20 45 261 239 240 269 259 203 202 187 195 247 263 209 213 247 259 248 228
344 347 350 350 352 355 353 349 349 357 4 7 13 18 10 3 1 355 354 315 296 346 18 321 339 354 343 337 339 324 322 338 340 322 240 256 306 329 346 0 337 321 327 328 328 335 357 28 11 332 296 335 3 25 45 18 338 333 2 67 117 126 113 117 90 90 163 58 54 155 242 265 279 308 302 212 172 146 173 276 281 217 200 213 227 237 240
348 350 352 352 355 358 356 351 348 350 352 353 4 11 0 354 2 3 6 28 261 302 337 313 330 349 349 345 348 335 336 357 6 4 333 309 304 315 335 342 333 331 334 329 323 338 60 59 24 358 302 5 24 344 342 18 18 12 12 17 72 110 117 116 84 234 171 118 129 241 293 312 309 324 1 118 53 165 160 219 272 240 196 193 213 242 251
351 352 353 352 356 1 0 356 350 342 339 340 348 356 351 348 358 360 0 7 294 313 16 40 332 331 330 340 358 358 350 2 5 343 329 332 327 325 337 344 339 338 344 340 327 12 76 66 42 32 285 287 180 239 328 14 2 20 35 25 26 47 71 150 145 200 127 97 60 307 331 290 268 272 279 325 316 246 198 132 294 274 220 199 206 229 239
352 353 354 352 354 2 5 1 355 342 331 328 328 332 339 347 356 356 350 352 354 336 5 11 354 344 335 345 10 18 7 350 346 334 329 342 342 335 339 347 348 345 349 349 1 58 52 85 94 98 262 257 210 231 325 143 188 9 52 57 33 19 12 78 113 103 103 110 138 229 216 238 257 264 282 319 325 263 197 53 304 300 319 242 213 219 239
351 352 354 353 353 360 6 8 3 345 324 314 311 319 328 338 350 354 350 342 325 278 291 347 359 10 24 10 358 11 11 344 343 12 325 318 330 334 338 347 2 11 4 358 10 51 56 113 110 109 227 270 289 205 310 25 104 290 358 58 53 35 13 349 326 287 156 139 168 214 223 250 280 282 297 318 331 46 109 65 256 304 343 337 257 242 283
350 352 354 354 355 357 3 10 9 354 330 314 305 306 316 325 340 352 353 342 325 275 248 347 355 34 60 19 317 325 352 338 329 12 299 289 320 334 335 341 359 13 11 14 58 45 55 120 126 129 185 261 254 153 260 326 247 261 305 63 65 61 35 301 223 209 219 196 189 252 263 258 297 311 315 320 334 85 115 200 251 307 337 348 333 298 319
348 351 352 353 355 356 359 6 10 7 346 319 298 288 299 310 323 340 351 350 338 306 297 310 302 93 36 2 333 324 341 334 331 0 329 291 340 338 333 344 12 359 0 20 53 60 71 177 256 138 153 244 244 155 161 188 222 270 82 85 73 89 110 256 181 167 190 183 173 277 275 280 335 327 327 341 51 169 221 265 305 325 346 26 42 35 23
348 350 351 350 351 354 357 0 6 10 3 334 297 273 284 302 318 330 340 343 331 319 326 324 179 159 360 354 351 338 333 340 357 11 133 226 337 345 350 40 7 352 355 19 26 42 52 312 283 91 132 230 235 149 140 180 265 254 154 110 98 143 170 237 206 168 143 103 75 277 229 309 349 346 347 19 64 222 261 306 355 21 37 49 49 45 41
352 351 350 348 349 353 354 354 359 7 11 358 327 284 276 297 316 321 324 330 323 314 336 95 206 287 331 342 6 345 330 337 337 325 290 300 336 2 47 247 328 346 354 20 41 13 333 300 278 323 324 270 319 122 135 79 349 283 173 108 100 136 165 203 223 190 113 108 140 198 221 290 343 3 35 35 1 339 318 334 23 38 33 28 27 24 20
355 355 353 348 345 348 349 350 355 3 12 12 359 333 307 311 323 325 325 328 316 292 284 281 279 292 297 183 102 57 36 39 39 270 286 314 340 8 318 289 328 353 348 13 57 254 314 297 303 344 351 336 7 38 122 102 84 320 336 76 100 37 257 178 209 241 139 167 224 251 293 316 341 9 352 342 356 359 355 348 352 3 3 355 352 352 354
354 356 354 348 344 345 347 349 353 2 11 13 9 5 1 1 1 351 343 343 332 310 295 283 278 268 178 165 131 59 57 76 73 59 280 289 320 348 330 322 347 352 0 20 6 261 205 192 270 332 330 321 39 43 29 52 116 328 339 11 110 19 21 94 238 261 263 241 240 297 334 333 339 7 5 6 10 1 354 348 336 333 332 326 327 331 336
351 353 352 348 344 344 348 350 353 1 8 10 15 19 16 15 14 8 6 4 354 344 334 315 341 119 158 176 183 262 273 162 5 340 320 262 270 305 348 356 350 336 335 354 343 315 260 221 233 291 317 316 33 58 6 15 82 69 9 340 309 342 11 28 15 1 27 306 264 340 338 332 349 24 15 5 4 359 358 356 345 337 333 323 316 316 322
346 347 347 347 345 347 355 355 355 2 10 14 22 24 21 18 16 16 17 12 5 6 15 345 4 105 169 219 221 241 256 250 261 283 295 278 268 270 291 326 335 324 319 329 329 325 325 289 203 108 338 352 15 341 292 0 347 326 26 11 294 315 340 353 338 342 337 218 301 341 345 353 32 20 1 355 352 347 352 0 354 345 345 345 337 318 312
339 339 342 345 346 351 1 1 355 1 14 27 34 29 19 17 18 19 19 15 9 18 26 337 321 341 290 268 249 252 262 264 263 259 268 286 285 279 282 294 307 315 321 323 317 317 338 68 75 75 48 9 17 8 265 319 341 27 48 298 287 310 331 341 359 339 326 260 340 350 357 43 12 356 352 355 351 341 342 359 2 358 358 1 4 351 331
330 335 341 344 345 351 5 9 359 0 14 38 51 37 18 17 21 23 23 19 14 24 26 314 311 323 308 267 257 272 269 266 266 256 253 272 286 282 276 278 286 305 322 328 320 322 41 45 6 281 250 312 343 6 239 312 36 77 47 304 320 349 347 351 32 17 340 318 2 3 4 290 327 342 350 356 355 348 343 348 357 5 7 5 8 14 12
328 338 343 344 346 354 5 7 1 6 20 54 65 42 21 22 30 30 25 20 14 3 302 295 305 322 331 308 332 320 278 268 266 256 250 257 270 280 287 290 291 298 317 336 337 352 75 13 317 287 315 340 347 341 335 6 44 60 308 312 358 41 40 23 46 23 281 291 330 352 347 293 308 332 344 353 0 359 352 344 339 338 338 337 338 342 349
339 346 350 353 356 359 4 6 6 12 24 103 104 57 24 26 37 33 23 14 3 347 323 311 316 333 348 1 21 15 307 270 264 261 259 258 261 270 290 302 301 295 298 331 3 22 322 303 279 293 342 7 2 322 339 27 42 300 285 322 351 357 346 349 353 290 296 310 321 327 323 310 314 324 329 334 347 354 354 352 345 333 321 312 309 310 312
351 353 356 4 11 11 9 11 12 13 23 132 131 55 21 18 29 26 16 3 354 349 345 330 316 331 341 1 18 18 9 298 263 263 263 263 264 270 283 295 298 291 272 254 280 305 308 303 295 325 7 12 20 115 107 54 312 263 287 318 328 327 328 330 327 314 310 316 320 320 316 315 319 322 320 320 329 339 344 347 346 343 334 312 293 290 292
357 359 2 8 17 18 17 20 23 24 37 116 174 30 35 16 3 5 2 354 350 354 352 319 293 317 343 18 19 14 20 35 24 299 255 259 266 267 272 280 281 275 255 233 234 261 264 280 315 27 57 42 71 131 132 97 253 281 318 330 331 331 331 330 327 323 318 317 320 321 320 323 330 329 324 322 322 326 330 332 333 339 343 333 306 287 284
358 2 6 12 17 19 21 27 31 31 44 79 90 54 50 10 341 340 346 347 350 356 356 342 322 331 339 1 12 11 16 31 37 45 72 62 347 286 272 272 259 243 233 202 190 218 257 263 274 248 215 106 106 111 87 98 159 308 332 341 341 338 335 329 324 323 322 321 321 320 321 329 335 332 325 322 319 318 320 321 321 324 330 336 335 322 308
358 360 5 11 13 14 16 21 28 34 42 54 54 38 15 335 325 330 338 343 349 360 7 6 14 315 321 333 8 16 16 20 26 31 43 43 28 13 336 305 233 197 186 195 215 285 332 273 227 193 171 143 103 85 83 88 316 329 341 348 348 345 343 339 330 323 328 333 330 316 309 315 321 322 322 319 315 311 309 309 312 311 310 316 326 332 333
353 354 358 1 3 5 6 9 16 25 20 16 14 1 341 325 326 336 339 340 346 9 28 24 44 297 327 325 360 17 14 12 11 11 14 21 18 16 28 57 88 151 171 207 237 280 297 258 236 164 129 85 51 62 75 321 330 342 351 356 359 1 3 4 0 348 335 331 325 315 312 315 316 315 316 317 316 311 305 299 294 294 299 304 311 318 321
348 347 349 351 352 355 355 355 356 352 343 336 335 337 332 327 336 348 350 352 2 40 44 24 31 8 353 343 340 5 7 6 2 359 354 356 10 15 25 55 66 118 176 208 201 188 285 251 227 228 20 36 37 51 295 313 330 344 354 359 4 9 10 8 5 1 358 353 344 336 334 332 326 321 320 323 325 323 319 311 293 283 291 300 304 308 311
352 344 341 340 341 341 342 348 350 339 328 325 330 339 339 346 4 11 11 17 32 55 32 14 30 99 50 351 291 341 357 1 359 0 359 352 357 8 19 40 77 124 212 189 162 295 264 220 209 350 14 52 69 277 307 326 335 344 354 358 3 7 7 2 2 6 10 16 17 12 6 358 348 336 327 325 326 326 325 327 320 304 302 309 311 310 310
356 353 347 342 344 345 343 348 352 347 337 336 352 29 24 12 20 27 23 25 34 37 29 26 23 298 7 235 289 331 348 349 348 358 7 359 342 344 12 35 39 270 344 20 14 286 209 179 103 54 56 104 296 321 343 353 352 352 358 2 6 11 15 14 10 8 9 11 13 11 7 4 3 357 343 331 330 333 333 335 334 325 316 316 315 309 304
7 9 7 2 0 358 349 348 353 355 357 4 26 49 24 15 23 28 19 20 27 25 24 29 349 324 315 270 325 343 345 339 348 2 6 356 348 344 10 21 7 310 342 315 293 348 107 98 71 89 150 304 352 3 5 9 13 11 10 11 13 14 17 17 15 13 11 8 4 1 359 357 356 356 351 342 336 335 335 335 334 330 326 321 315 309 306
9 12 19 25 25 14 358 357 5 15 28 38 50 61 23 23 26 5 359 7 15 18 20 15 349 340 329 297 337 355 355 346 358 11 0 357 4 10 359 0 2 16 23 315 275 47 62 338 20 79 138 315 353 10 13 16 22 21 18 16 15 14 14 15 15 15 14 9 3 359 358 354 348 343 340 336 330 327 327 327 327 327 325 322 317 313 311
12 18 23 26 26 18 6 10 27 34 30 38 50 57 46 37 33 7 356 6 17 27 17 357 339 341 343 317 319 352 357 349 342 336 334 342 351 356 1 0 359 17 29 284 299 6 93 269 18 66 140 295 334 1 10 17 24 25 20 16 13 10 8 7 7 7 5 2 1 359 357 353 347 340 335 331 327 323 321 321 324 324 323 322 319 316 313
21 22 18 14 15 16 14 19 29 31 35 51 49 42 41 34 21 13 20 32 26 353 357 353 343 341 345 337 305 311 337 341 328 304 307 319 334 353 357 311 348 34 99 266 312 9 86 75 19 56 251 312 341 357 7 16 23 26 25 20 15 11 6 2 359 358 357 355 355 354 352 350 347 342 335 331 329 327 322 320 321 322 323 326 327 324 318
16 11 8 8 11 14 16 23 30 31 38 52 44 22 4 17 9 8 27 51 20 344 352 355 347 334 335 337 324 308 320 333 328 308 296 322 335 352 350 311 14 64 216 281 333 23 57 17 13 245 292 332 350 360 7 14 18 22 23 20 16 13 9 3 358 354 352 351 350 349 349 347 344 340 334 328 326 323 321 319 320 320 318 319 324 327 324
7 3 5 13 21 21 23 29 32 31 37 50 46 19 354 5 6 359 9 11 359 353 352 351 350 349 351 349 339 322 311 324 328 317 270 312 331 5 46 27 24 245 275 317 15 56 348 255 186 245 309 337 354 2 7 10 11 12 14 14 12 10 8 5 0 354 349 347 346 345 345 344 341 338 333 329 324 319 315 315 318 318 314 308 306 314 322
360 359 359 3 15 22 19 12 25 39 52 50 56 71 32 359 345 330 355 350 344 346 348 349 350 351 346 341 338 327 310 341 346 334 309 327 352 47 71 289 262 276 320 346 31 60 273 230 219 274 317 340 354 0 5 7 5 3 4 6 6 5 2 1 360 356 351 346 342 340 340 340 340 337 334 333 331 326 319 313 310 311 311 306 298 296 305
7 8 9 10 16 18 12 357 29 43 54 13 68 124 153 198 225 228 316 330 331 341 349 353 354 346 330 333 338 324 307 345 347 323 313 7 23 50 234 246 255 353 10 355 331 343 287 222 272 318 335 344 350 355 360 2 1 360 358 356 358 360 359 357 357 356 352 347 342 338 335 333 333 333 333 334 335 333 327 320 314 310 308 304 295 285 285
23 23 27 42 18 11 20 65 40 25 62 111 93 109 180 242 261 287 326 335 338 344 348 350 349 340 328 333 337 306 308 337 339 297 349 55 80 254 257 237 14 28 40 343 292 275 210 230 307 335 344 346 348 351 354 356 358 360 357 354 353 354 355 354 353 352 350 346 341 337 334 330 326 326 328 330 333 333 330 324 319 314 309 301 294 286 280
32 29 36 62 22 359 27 92 46 346 109 129 42 10 352 316 311 320 337 344 346 348 348 346 343 329 317 320 309 288 300 340 315 278 310 93 186 281 352 35 321 216 158 206 255 243 234 307 330 335 337 339 343 346 349 352 355 355 354 353 352 349 348 347 347 347 348 345 340 337 335 330 324 321 322 324 328 330 328 323 320 319 315 306 296 286 275
32 29 34 63 209 286 9 52 346 335 315 269 330 345 346 327 320 327 343 351 351 348 344 340 336 323 313 315 287 276 298 343 304 272 278 99 82 324 9 17 296 255 196 195 210 216 289 327 335 338 339 341 346 350 353 354 352 349 348 349 348 346 344 342 340 341 342 341 338 337 336 332 327 321 319 320 322 324 325 322 317 315 314 310 298 282 267
33 46 63 101 166 250 282 311 320 317 307 303 322 337 341 333 327 331 346 351 347 343 338 332 322 284 286 306 325 299 301 327 67 322 2 26 338 222 135 130 270 276 263 208 199 275 328 334 339 345 349 352 353 353 352 350 347 343 342 342 342 340 339 336 335 335 335 336 335 334 334 333 330 325 320 319 318 317 317 316 311 307 308 308 297 278 261
32 40 65 96 50 318 324 333 329 318 317 322 324 330 337 334 329 334 348 345 339 339 340 337 288 225 276 329 24 17 304 281 114 42 343 285 218 166 111 214 231 228 222 225 286 329 337 338 336 336 340 343 343 342 342 341 339 337 336 336 335 334 333 332 331 329 328 329 329 329 329 331 331 327 323 320 317 313 311 310 306 302 301 302 294 276 259
27 25 90 161 221 280 309 322 305 288 295 305 313 318 323 320 318 324 334 336 335 339 345 339 325 347 3 21 78 281 300 327 44 54 267 248 199 139 153 213 224 237 284 314 323 329 333 332 328 326 328 330 329 329 330 331 333 334 334 333 331 330 331 331 330 328 325 323 323 324 324 325 327 326 323 320 317 312 307 306 306 304 300 296 289 275 258
359 338 302 272 267 270 277 280 278 277 281 291 300 306 307 306 310 317 323 324 325 326 318 308 320 49 94 256 274 306 339 0 15 317 268 249 214 187 210 249 277 296 306 313 319 323 324 322 319 318 317 316 317 318 318 319 323 328 331 330 328 327 328 328 327 326 323 320 318 318 319 320 322 323 322 320 316 311 305 302 304 306 298 284 275 266 253